This is the latest recevied weather packets stored in our database for station/object K1FFK-1. If no packets are shown the sender has not sent any weather packets the latest 10 day(s).
| Time | Temp. | Humidity | Pressure | Rain* | Wind** | Luminosity | Snow |
|---|---|---|---|---|---|---|---|
| 1778110894 | 6.67° C | 98% | 1009.4 hPa | 0 mm | - | - | - |
| 1778110293 | 7.22° C | 99% | 1009.3 hPa | 0 mm | - | - | - |
| 1778109693 | 7.22° C | 99% | 1009.2 hPa | 0 mm | - | - | - |
| 1778109094 | 7.78° C | 99% | 1009.1 hPa | 0 mm | - | - | - |
| 1778108495 | 8.33° C | 99% | 1009.1 hPa | 0 mm | - | - | - |
| 1778107894 | 9.44° C | 99% | 1009 hPa | 0 mm | - | - | - |
| 1778107293 | 10.56° C | 99% | 1008.8 hPa | 0 mm | - | - | - |
| 1778106694 | 10.56° C | 99% | 1008.7 hPa | 0 mm | - | - | - |
| 1778106093 | 10.56° C | 99% | 1008.6 hPa | 0 mm | - | - | - |
| 1778105494 | 10.56° C | 99% | 1008.7 hPa | 0 mm | - | - | - |
| 1778104893 | 10.56° C | 99% | 1008.8 hPa | 0 mm | - | - | - |
| 1778104294 | 10.56° C | 99% | 1008.8 hPa | 0 mm | - | - | - |
| 1778103693 | 10.56° C | 99% | 1008.8 hPa | 0 mm | - | - | - |
| 1778103094 | 10.56° C | 99% | 1008.8 hPa | 0 mm | - | - | - |
| 1778102494 | 10.56° C | 99% | 1008.8 hPa | 0 mm | - | - | - |
| 1778101894 | 10° C | 99% | 1008.9 hPa | 0 mm | - | - | - |
| 1778101293 | 10° C | 99% | 1009 hPa | 0 mm | - | - | - |
| 1778100695 | 10° C | 99% | 1009 hPa | 0 mm | - | - | - |
| 1778100094 | 10° C | 100% | 1008.8 hPa | 0 mm | - | - | - |
| 1778099494 | 10° C | 100% | 1009 hPa | 0 mm | - | - | - |
| 1778098894 | 10° C | 100% | 1009.1 hPa | 0 mm | - | - | - |
| 1778098293 | 10° C | 100% | 1009.1 hPa | 0 mm | - | - | - |
| 1778097694 | 10° C | 100% | 1008.9 hPa | 0 mm | - | - | - |
| 1778097094 | 10° C | 100% | 1009.2 hPa | 0 mm | - | - | - |
| 1778096494 | 10° C | 100% | 1009.2 hPa | 0 mm | - | - | - |
* Rain latest hour (hover to see other rain measurements)
** Current wind speed in m/s (hover to see current wind gust speed)